カタログに戻る

COSMOS 2282

運用中軍事GEO
NORAD 23168·PAYLOAD·🇷🇺 Russia

打ち上げ Jul 6, 1994 から Baikonur Cosmodrome

Loading…

TLE

最新Source: Space-Track

元期: Sep 14, 2026, 12:31 UTC

1 23168U 94038A   26257.52196493  .00000080  00000-0  00000-0 0  9993
2 23168  13.8537 352.0479 0005756 143.4508 237.6787  1.00310231117906

AllMySatでCOSMOS 2282をリアルタイム追跡

Download on the App Store